Temp
4 4 5 5 5 5 5 5 5 5 5 5 5 6 6 6 6 6 6 6 5 5 5 5 5 5 5 5 5 4 4 4 3 3 3 3 3 3 3 3 3 3
3 3 4 4 4 4 5 5 5 5 5 5 5 6 6 6 6 5 5 5 5 5 5 5 5 5 5 4 4 4 3 3 3 3 3 3 3 3 3 3 3 2
3 3 4 4 4 4 4 5 5 5 5 5 5 5 5 5 5 5 5 5 5 5 5 4 4 4 4 4 3 3 3 2 2 2 2 2 2 2 2 2 2 1
4 4 4 4 4 4 4 5 5 5 5 5 5 5 5 5 5 5 5 5 5 4 4 4 4 4 3 3 3 2 2 2 2 2 2 2 2 2 1 1 1 0
4 4 4 4 4 4 5 5 5 5 5 4 4 4 4 5 5 5 5 4 4 4 4 4 3 3 3 2 2 2 2 2 2 1 1 1 1 1 1 0 0 -0
4 4 4 4 4 5 5 5 5 5 5 4 4 4 4 5 5 5 4 4 4 4 3 3 3 2 2 2 2 2 1 1 1 1 1 1 1 1 0 -0 -1 -1
4 4 4 4 4 5 5 5 5 5 5 5 4 4 4 5 4 4 3 3 3 3 3 2 2 2 2 1 1 1 1 1 1 1 1 1 0 0 -0 -1 -1 -2
4 4 4 4 5 5 4 5 5 5 5 5 4 4 4 4 4 3 3 3 3 3 2 2 1 1 1 1 1 1 1 1 0 0 0 -0 -0 -1 -1 -1 -2 -2
4 4 4 4 4 4 4 4 4 4 4 5 4 4 4 3 3 3 3 3 3 2 2 1 1 1 1 1 0 0 0 0 -0 -0 -1 -1 -1 -1 -2 -2 -2 -3
4 4 4 4 4 3 3 3 3 4 4 4 4 4 3 3 3 3 3 2 2 2 1 1 1 1 0 0 -0 -0 -0 -0 -1 -1 -1 -1 -2 -2 -2 -2 -3 -3
4 4 4 3 3 3 3 3 3 4 4 4 4 3 3 3 3 3 2 2 2 1 1 1 0 0 -0 -0 -0 -1 -1 -1 -1 -2 -2 -2 -2 -2 -2 -3 -3 -4
3 3 3 3 3 3 3 3 4 4 4 3 3 3 3 2 2 2 2 2 1 1 1 0 -0 -0 -1 -1 -1 -1 -1 -1 -2 -2 -2 -2 -2 -3 -3 -3 -4 -5
3 3 3 3 2 2 3 3 4 4 3 3 3 2 2 2 2 2 1 1 1 1 0 -0 -1 -1 -1 -1 -1 -1 -2 -2 -2 -2 -2 -3 -3 -3 -4 -4 -5 -5
3 3 2 2 2 2 3 3 3 3 3 2 2 2 2 2 2 1 1 1 1 0 -0 -1 -1 -1 -1 -1 -1 -2 -2 -2 -2 -2 -3 -3 -3 -4 -4 -5 -5 -6
3 2 1 1 2 2 3 3 3 3 2 2 2 2 1 1 1 1 1 1 0 -0 -0 -1 -1 -1 -1 -2 -2 -2 -2 -2 -2 -3 -3 -3 -4 -4 -5 -5 -6 -6
3 2 1 1 2 2 3 3 3 2 2 2 1 1 1 1 1 1 1 0 -0 -0 -1 -1 -1 -1 -2 -2 -2 -2 -2 -3 -3 -3 -3 -4 -4 -5 -5 -5 -6 -6
3 2 1 1 2 2 2 3 2 2 2 1 1 1 1 1 1 1 1 0 -0 -1 -1 -1 -1 -2 -2 -2 -2 -2 -3 -3 -3 -3 -4 -4 -4 -5 -5 -5 -6 -6
2 2 1 1 2 2 2 2 2 2 1 1 1 1 1 1 1 1 0 0 -0 -1 -1 -2 -2 -2 -2 -2 -3 -3 -3 -4 -4 -4 -4 -4 -4 -5 -5 -6 -6 -7
2 1 1 2 2 2 2 2 2 2 1 1 1 1 1 1 1 1 0 -0 -1 -1 -1 -2 -2 -2 -3 -3 -3 -3 -4 -4 -4 -4 -4 -4 -4 -5 -5 -6 -7 -7
2 1 1 1 1 2 2 2 2 2 1 1 1 1 1 1 1 0 -0 -0 -1 -1 -2 -2 -2 -2 -3 -3 -3 -4 -4 -4 -4 -4 -4 -4 -5 -5 -6 -6 -7 -8
2 1 1 1 1 1 2 2 2 2 2 1 1 1 1 1 1 0 -0 -0 -1 -2 -2 -2 -2 -3 -3 -3 -4 -4 -4 -4 -4 -4 -5 -5 -5 -6 -6 -7 -8 -9
2 1 1 1 1 1 1 1 2 2 2 1 1 1 1 1 0 0 -0 -0 -1 -2 -2 -2 -3 -3 -3 -4 -4 -4 -4 -4 -4 -5 -5 -5 -6 -6 -7 -7 -8 -9
2 1 1 1 1 1 1 2 2 2 2 1 1 1 1 1 0 0 -0 -1 -1 -2 -2 -2 -3 -3 -3 -4 -4 -4 -4 -4 -5 -5 -6 -6 -6 -6 -7 -8 -8 -9
3 2 1 1 2 2 2 2 2 2 2 1 1 1 1 1 0 -0 -1 -1 -2 -2 -2 -3 -3 -3 -3 -4 -4 -4 -4 -5 -5 -6 -6 -6 -6 -7 -7 -8 -8 -9
2 2 1 1 2 2 2 2 2 1 1 1 1 0 0 -0 -1 -1 -1 -1 -2 -2 -3 -3 -3 -4 -4 -4 -4 -5 -5 -5 -6 -6 -6 -6 -7 -7 -7 -7 -8 -9
2 2 1 1 2 2 2 1 1 1 0 0 0 -0 -1 -1 -1 -2 -2 -2 -2 -3 -3 -3 -4 -4 -4 -4 -5 -5 -5 -5 -6 -6 -6 -6 -7 -7 -7 -7 -8 -9
Height
1521 1523 1524 1526 1528 1530 1531 1533 1534 1536 1538 1539 1541 1541 1542 1544 1545 1546 1547 1548 1549 1550 1551 1551 1552 1552 1553 1554 1554 1554 1555 1555 1555 1555 1556 1556 1556 1556 1555 1555 1554 1554
1519 1521 1523 1525 1527 1529 1531 1532 1534 1536 1537 1539 1540 1540 1541 1542 1543 1544 1545 1547 1548 1548 1549 1550 1551 1552 1552 1553 1553 1554 1554 1554 1554 1554 1554 1554 1554 1554 1554 1554 1553 1552
1518 1520 1522 1524 1526 1528 1529 1531 1532 1534 1536 1537 1538 1539 1540 1541 1542 1543 1544 1545 1546 1547 1548 1549 1550 1551 1551 1552 1552 1553 1553 1553 1553 1553 1553 1553 1553 1553 1553 1552 1552 1551
1516 1519 1521 1523 1525 1527 1528 1529 1530 1532 1534 1536 1537 1538 1538 1539 1540 1541 1542 1543 1545 1546 1547 1548 1549 1549 1550 1550 1551 1551 1551 1551 1552 1552 1552 1552 1551 1551 1551 1550 1550 1550
1516 1518 1520 1522 1524 1525 1527 1527 1529 1530 1533 1535 1536 1537 1537 1538 1539 1540 1541 1543 1544 1545 1546 1547 1547 1548 1548 1548 1549 1549 1549 1550 1550 1551 1550 1550 1550 1550 1549 1549 1548 1548
1515 1517 1519 1521 1523 1524 1525 1526 1527 1529 1531 1533 1535 1536 1536 1536 1537 1539 1540 1542 1543 1544 1545 1546 1546 1546 1546 1546 1547 1547 1548 1548 1549 1549 1549 1549 1548 1548 1548 1547 1546 1546
1514 1516 1518 1519 1520 1522 1523 1524 1525 1526 1528 1531 1533 1534 1535 1535 1536 1537 1539 1540 1542 1543 1544 1544 1544 1545 1545 1545 1545 1546 1546 1547 1548 1548 1548 1547 1547 1546 1546 1545 1545 1545
1512 1514 1515 1517 1518 1519 1521 1522 1523 1524 1525 1528 1531 1532 1534 1535 1535 1536 1538 1539 1540 1541 1542 1543 1543 1543 1544 1544 1544 1544 1545 1546 1546 1546 1546 1546 1545 1545 1544 1544 1543 1543
1510 1511 1512 1513 1515 1517 1518 1520 1522 1523 1524 1526 1528 1530 1532 1533 1534 1535 1536 1537 1538 1539 1539 1541 1541 1542 1542 1542 1543 1543 1543 1544 1544 1545 1545 1544 1544 1543 1543 1542 1542 1542
1506 1507 1509 1510 1512 1515 1516 1519 1521 1522 1523 1525 1526 1528 1530 1532 1533 1533 1534 1535 1536 1537 1537 1538 1539 1540 1541 1541 1541 1542 1542 1542 1542 1543 1543 1543 1542 1542 1541 1541 1541 1541
1503 1505 1507 1509 1511 1514 1516 1518 1519 1521 1522 1523 1525 1527 1528 1530 1531 1531 1532 1533 1534 1535 1536 1536 1537 1538 1539 1539 1540 1540 1540 1540 1541 1541 1541 1541 1540 1540 1540 1539 1539 1539
1501 1503 1505 1508 1510 1513 1514 1516 1518 1519 1521 1522 1524 1525 1526 1528 1528 1529 1530 1531 1532 1533 1534 1535 1535 1536 1537 1538 1538 1538 1538 1539 1539 1539 1539 1539 1539 1538 1538 1538 1537 1537
1498 1500 1503 1506 1509 1511 1512 1514 1516 1517 1519 1520 1522 1523 1525 1525 1526 1527 1528 1529 1530 1531 1532 1533 1534 1535 1535 1536 1536 1537 1537 1537 1537 1537 1537 1537 1537 1537 1536 1536 1536 1536
1495 1498 1501 1504 1506 1508 1510 1512 1513 1515 1517 1519 1520 1521 1522 1523 1524 1525 1526 1527 1528 1529 1530 1531 1532 1533 1534 1534 1534 1535 1534 1535 1535 1535 1536 1536 1535 1535 1534 1534 1534 1535
1493 1496 1499 1502 1504 1506 1507 1509 1511 1513 1515 1516 1518 1519 1520 1521 1522 1523 1524 1525 1526 1527 1528 1530 1530 1531 1532 1532 1532 1532 1532 1533 1533 1534 1534 1533 1533 1532 1532 1532 1533 1533
1491 1494 1496 1499 1501 1503 1505 1507 1508 1510 1512 1514 1516 1517 1518 1519 1520 1521 1522 1523 1524 1525 1527 1527 1528 1529 1529 1530 1530 1530 1531 1531 1531 1531 1531 1531 1531 1531 1531 1531 1531 1531
1488 1491 1493 1495 1498 1500 1502 1504 1506 1507 1509 1511 1513 1514 1516 1517 1518 1519 1520 1521 1522 1523 1524 1525 1526 1526 1527 1527 1527 1528 1528 1529 1529 1529 1529 1528 1529 1529 1529 1529 1530 1530
1485 1487 1490 1492 1495 1497 1499 1501 1503 1504 1506 1508 1510 1511 1513 1514 1515 1516 1517 1518 1519 1521 1522 1523 1523 1524 1524 1524 1525 1525 1526 1526 1526 1526 1527 1527 1527 1527 1527 1527 1528 1528
1481 1484 1486 1489 1491 1493 1496 1498 1499 1501 1503 1505 1507 1508 1510 1511 1512 1513 1514 1515 1517 1518 1519 1520 1520 1521 1522 1522 1523 1523 1524 1524 1524 1524 1525 1525 1525 1525 1526 1526 1526 1526
1478 1480 1483 1485 1488 1490 1492 1493 1495 1497 1499 1501 1503 1505 1506 1508 1509 1510 1511 1512 1514 1515 1516 1517 1517 1518 1519 1520 1520 1521 1521 1522 1522 1522 1523 1523 1523 1524 1524 1524 1524 1523
1474 1476 1479 1481 1484 1486 1488 1489 1491 1493 1495 1497 1499 1501 1502 1504 1506 1507 1508 1509 1511 1512 1513 1514 1515 1516 1517 1518 1518 1519 1519 1519 1520 1520 1521 1521 1521 1521 1521 1521 1521 1521
1469 1472 1475 1477 1480 1482 1483 1485 1487 1489 1491 1493 1495 1497 1499 1501 1502 1503 1505 1506 1507 1508 1510 1511 1512 1513 1514 1515 1516 1516 1516 1517 1518 1518 1518 1519 1519 1519 1519 1519 1519 1518
1466 1469 1471 1473 1475 1477 1479 1481 1483 1485 1487 1489 1491 1492 1494 1496 1498 1500 1501 1503 1504 1505 1506 1508 1509 1510 1511 1512 1513 1513 1513 1514 1515 1516 1516 1516 1516 1516 1516 1516 1516 1516
1462 1465 1467 1469 1470 1473 1475 1477 1479 1481 1483 1485 1486 1488 1491 1493 1495 1497 1498 1500 1501 1502 1504 1505 1506 1507 1508 1509 1510 1510 1511 1512 1513 1513 1513 1513 1513 1513 1513 1513 1513 1514
1459 1461 1463 1465 1467 1469 1472 1474 1476 1478 1479 1481 1484 1486 1488 1491 1492 1494 1495 1496 1498 1499 1501 1502 1503 1504 1505 1506 1506 1507 1508 1509 1510 1510 1510 1510 1510 1510 1510 1510 1511 1511
1455 1457 1459 1461 1463 1465 1468 1470 1472 1474 1476 1478 1480 1482 1485 1487 1488 1489 1491 1493 1494 1496 1497 1498 1499 1500 1501 1502 1503 1504 1505 1506 1506 1506 1506 1507 1507 1507 1507 1507 1508 1508
Wind_Speed
28 27 26 26 25 26 26 26 25 24 23 21 20 19 18 18 18 17 16 15 12 9 7 7 9 11 11 10 9 9 8 7 7 7 7 7 7 6 6 7 7 6
29 27 27 27 27 27 27 25 24 23 22 21 20 20 20 19 18 16 14 12 9 7 8 10 11 12 11 10 9 9 8 8 7 7 7 7 7 7 7 7 6 6
30 29 29 29 29 28 26 25 24 22 22 21 21 20 20 18 16 14 11 9 8 9 12 13 13 12 11 10 9 9 9 8 8 8 8 8 8 7 7 6 5 5
30 30 30 29 28 27 26 25 25 24 23 22 21 20 18 16 13 11 10 10 12 13 14 13 13 12 11 11 10 9 9 8 8 8 8 8 7 6 6 5 5 5
30 30 29 29 28 27 27 26 24 24 23 22 20 18 15 13 12 12 12 14 14 15 15 14 13 12 11 10 9 9 8 8 8 8 8 8 7 6 6 5 5 5
30 30 29 29 28 27 27 26 25 24 23 20 18 15 14 13 13 14 15 15 15 15 15 14 13 12 11 10 9 9 8 8 8 8 8 8 7 6 5 5 5 5
30 30 30 29 29 28 28 27 26 24 23 20 17 15 15 15 15 16 16 16 16 15 14 13 13 12 11 10 10 9 9 9 9 9 9 8 7 6 6 5 5 5
31 31 31 31 30 30 30 29 26 24 22 20 18 17 16 16 17 17 17 17 16 15 14 13 13 12 11 11 11 10 10 10 10 9 8 8 7 7 6 6 6 6
34 34 34 33 32 31 30 29 25 23 21 20 19 18 18 18 18 18 18 17 16 15 14 14 13 13 12 12 11 11 10 10 10 9 8 8 8 7 7 7 7 6
37 37 37 36 34 32 30 27 24 22 21 20 20 20 20 20 19 19 18 17 16 15 14 14 13 13 12 12 12 11 11 10 10 9 9 9 8 8 7 7 7 7
38 38 37 36 33 31 28 24 22 21 21 21 21 21 21 21 20 19 18 17 16 15 14 14 13 13 13 13 12 12 11 10 10 9 10 9 9 8 8 8 8 7
39 38 37 35 32 29 26 24 22 22 23 23 23 23 22 22 21 19 18 17 16 15 14 14 14 14 14 13 13 12 11 10 10 11 10 10 9 9 9 8 8 7
40 39 37 34 31 28 26 24 24 24 24 24 24 24 23 22 21 19 18 17 16 15 15 15 15 15 15 14 13 13 12 11 11 12 11 11 10 10 9 8 7 7
40 39 36 33 30 28 26 26 26 26 25 25 25 24 23 22 20 19 18 17 17 17 17 17 17 16 16 15 14 13 12 12 13 13 13 12 10 9 8 8 8 8
40 38 35 32 30 29 28 27 28 27 27 26 26 25 24 22 21 20 19 19 18 19 18 18 18 17 17 15 14 13 13 14 14 14 13 11 10 9 9 9 9 9
40 37 35 33 31 30 29 29 29 29 28 28 27 26 24 23 22 22 21 20 20 20 19 19 19 18 17 16 15 14 15 15 15 14 12 10 10 10 10 10 10 11
40 39 36 35 33 31 31 31 31 30 29 29 28 27 25 25 24 24 23 22 21 20 20 20 20 19 17 16 16 16 16 15 15 13 11 10 11 11 11 11 12 12
42 40 38 36 34 33 33 33 32 32 31 30 29 28 27 27 26 25 24 23 22 22 22 21 20 19 18 17 17 16 16 15 14 12 11 12 13 13 13 13 13 13
43 41 39 38 36 35 35 34 34 34 33 32 30 30 29 28 28 27 25 24 24 24 23 22 21 20 19 18 17 17 17 16 14 13 13 14 14 13 14 14 13 13
44 42 41 39 38 37 37 37 37 36 34 33 32 32 31 31 30 28 27 26 25 24 23 22 21 20 20 19 19 19 18 16 15 15 15 15 14 14 15 14 13 13
46 44 43 41 40 39 39 39 39 37 36 35 34 34 33 32 31 29 27 26 26 25 24 23 23 22 21 21 20 20 19 17 16 17 17 16 15 15 15 14 13 12
48 46 45 43 42 42 42 42 40 39 38 37 37 36 35 34 32 30 29 27 26 26 26 25 24 23 23 23 22 21 19 18 18 18 17 16 16 15 14 13 13 12
50 48 46 46 45 45 44 43 42 41 40 39 39 38 37 36 34 32 30 29 28 28 28 27 26 25 25 24 23 21 21 20 20 19 18 17 16 15 14 13 13 13
50 49 48 48 48 47 46 45 43 43 42 42 41 40 38 36 34 33 32 31 30 30 28 27 27 26 26 25 23 23 22 21 21 20 19 17 16 16 14 14 14 13
51 50 50 49 49 48 47 46 45 44 44 43 42 40 38 37 35 35 34 33 32 31 30 28 28 27 27 26 24 24 23 22 22 21 19 18 17 16 15 15 15 14
52 52 51 51 50 50 48 47 47 46 46 45 43 41 40 39 38 37 36 35 34 33 32 30 29 30 29 27 26 25 24 23 23 22 20 18 17 16 16 16 15 14
Wind_Direction
199 199 199 197 193 192 192 190 190 189 190 193 197 202 207 213 219 224 229 233 238 243 255 261 254 247 243 239 236 232 228 224 221 224 228 233 239 243 249 253 258 264
192 192 193 191 189 189 190 190 191 191 195 199 203 209 212 217 221 225 230 233 238 248 253 249 242 237 235 234 229 224 222 220 220 222 225 231 235 241 246 250 258 267
190 190 191 191 191 190 190 192 194 197 202 207 210 213 215 218 222 225 231 238 242 244 242 238 234 232 230 227 222 218 216 215 218 222 224 229 234 240 247 252 257 264
190 190 191 192 193 194 195 197 199 202 206 210 213 215 216 218 221 227 235 238 236 234 233 232 229 227 225 221 217 214 214 216 219 224 227 230 236 241 245 250 256 265
191 193 194 196 198 199 201 203 204 206 209 212 215 217 219 221 225 231 233 231 229 229 228 227 225 223 221 218 217 215 216 221 224 228 232 233 236 240 244 251 259 269
194 196 198 200 202 203 205 206 208 209 212 216 220 221 222 223 225 228 228 228 228 228 226 223 221 221 220 218 219 220 220 225 228 229 232 235 238 243 246 250 256 265
197 198 200 202 204 206 207 208 210 213 215 218 222 223 222 222 224 224 225 227 226 225 223 221 219 219 219 219 220 221 222 224 227 229 232 236 239 244 246 247 252 257
200 201 203 206 207 208 208 210 212 214 215 216 218 221 221 222 223 222 223 223 221 221 219 218 218 218 219 220 221 222 223 225 227 228 232 234 235 240 243 244 249 254
202 205 207 209 209 210 211 212 213 213 213 214 216 218 220 220 221 221 222 221 219 218 217 217 218 219 220 221 222 223 224 226 227 227 229 232 233 237 241 243 247 251
205 207 209 210 210 211 212 212 211 210 211 212 214 217 219 220 220 220 220 220 219 218 217 218 219 220 222 223 224 225 225 226 227 227 229 231 233 237 240 244 247 250
209 211 213 214 214 214 213 211 210 211 212 213 214 216 218 219 220 220 219 218 218 218 218 219 221 222 224 224 225 225 226 226 227 228 231 232 235 239 240 242 245 249
212 215 217 218 218 216 213 211 212 214 215 214 215 217 218 218 218 219 219 217 217 217 218 220 222 223 224 225 226 226 225 226 228 231 233 234 236 237 238 240 245 252
215 217 218 218 216 213 212 213 215 216 216 216 217 218 218 218 218 217 217 217 218 219 220 222 223 224 226 226 225 225 225 227 230 233 234 235 236 235 237 243 248 255
218 218 218 216 213 212 213 215 217 217 217 217 218 218 218 217 217 217 217 217 218 219 220 222 223 225 227 226 226 225 226 229 232 234 234 233 233 235 240 247 251 254
219 218 217 214 212 213 214 216 218 218 218 218 219 218 217 216 216 217 218 219 219 219 220 222 224 226 226 226 227 227 229 231 232 232 233 232 234 239 243 246 251 255
219 218 217 215 214 215 216 217 219 219 219 219 219 218 217 216 217 217 218 219 219 221 222 223 224 225 226 227 227 229 230 231 232 232 232 232 235 240 243 246 251 255
220 218 218 217 216 216 217 218 220 221 221 221 220 219 218 218 219 219 219 219 219 221 223 224 224 224 225 227 228 229 230 230 232 232 231 234 237 240 244 247 250 253
221 219 219 218 217 218 218 220 221 221 221 221 221 220 220 220 221 221 220 219 220 221 221 222 223 224 225 227 228 230 231 231 232 233 233 236 238 241 244 246 248 250
222 221 220 220 219 219 220 221 222 223 222 222 222 222 222 223 223 222 220 219 220 221 221 220 222 224 226 228 229 230 232 233 234 235 236 238 239 241 243 245 247 250
224 222 222 221 220 220 221 222 224 224 223 224 224 224 224 224 224 222 220 220 221 222 221 221 223 226 227 228 229 230 231 233 235 236 237 238 239 240 242 244 246 248
225 224 223 223 222 222 222 224 225 224 225 225 225 225 226 226 225 224 222 222 222 222 222 222 224 226 227 227 228 230 232 234 236 237 237 237 237 239 241 243 245 247
227 225 225 224 224 223 224 224 225 226 226 226 226 226 227 227 226 225 224 224 223 223 223 223 223 225 226 226 227 230 233 235 235 235 235 235 236 239 241 242 245 248
229 227 226 226 226 225 225 226 227 227 228 228 228 228 228 227 227 225 225 225 224 224 225 224 223 224 226 227 227 230 233 234 233 232 233 234 236 240 242 243 246 249
231 230 229 228 229 229 228 228 229 229 230 230 230 230 230 230 229 227 226 226 225 225 226 226 224 225 227 227 227 230 232 232 230 230 231 233 235 239 242 244 247 248
233 233 231 231 233 233 232 232 231 231 231 231 231 231 231 231 230 228 228 227 226 226 226 226 224 224 227 227 226 228 230 229 229 230 231 232 235 239 243 246 248 249
235 236 235 235 236 236 235 234 233 232 232 232 232 232 231 230 230 230 230 230 228 227 226 225 223 223 226 227 225 227 230 229 229 231 231 232 235 240 244 246 248 250